Regional Weather Roundup
Issued by NWS

Home | Current Version | Previous Version | Text Only | Print | Product List | Glossary Off
Versions: 1 2 3 4 5 6 7 8 9 10 11 12 13 14 15 16 17 18 19 20 21 22 23 24 25 26 27 28 29 30 31 32 33 34 35 36 37 38 39 40 41 42 43 44 45 46 47 48 49 50

000
ASUS43 KLOT 301910
RWRIL

ILLINOIS REGIONAL WEATHER ROUNDUP
NATIONAL WEATHER SERVICE CHICAGO/ROMEOVILLE IL
200 PM CDT THU OCT 30 2014

NOTE: "FAIR" INDICATES FEW OR NO CLOUDS BELOW 12,000 FEET WITH NO
SIGNIFICANT WEATHER AND/OR OBSTRUCTIONS TO VISIBILITY.

* THESE STATIONS ARE NOT UNDER NWS QUALITY CONTROL. THEY ALSO MAY NOT
  REPORT WEATHER SUCH AS PRECIPITATION OR FOG.

ILZ001-002-007-009-015-016-024-302000-
NORTHWEST ILLINOIS

CITY           SKY/WX    TMP DP  RH WIND       PRES   REMARKS
MOLINE         CLOUDY    50  37  61 S7        30.05F
STERLING*      CLOUDY    50  36  57 W3        30.07F
SAVANNA*       CLOUDY    51  36  57 CALM      30.06F
$$

ILZ003-004-008-010-011-017-018-302000-
NORTH CENTRAL ILLINOIS

CITY           SKY/WX    TMP DP  RH WIND       PRES   REMARKS
ROCKFORD       PTSUNNY   52  35  52 W5        30.08F
FREEPORT*      CLOUDY    50  35  56 W5        30.07F
ROCHELLE*      CLOUDY    48  35  59 W6        30.07F
DE KALB*       CLOUDY    49  37  61 SW5       30.07F
PERU*          CLOUDY    48  37  64 SW7       30.09F
$$

ILZ005-006-012>014-019>023-302000-
NORTHEAST ILLINOIS

CITY           SKY/WX    TMP DP  RH WIND       PRES   REMARKS
CHICAGO-OHARE  CLOUDY    49  34  56 SW10      30.07F
CHICAGO-MIDWAY CLOUDY    52  36  54 W12       30.07F
AURORA         CLOUDY    50  35  56 SW10      30.07F
LANSING*       PTSUNNY   51  36  55 SW10      30.08F
JOLIET*        CLOUDY    49  35  58 SW8       30.08F
WAUKEGAN       PTSUNNY   49  34  56 SW8       30.06F
DUPAGE AIRPORT CLOUDY    50  35  56 SW14      30.06F
WHEELING       CLOUDY    51  34  52 W9        30.09F
MORRIS*        CLOUDY    50  38  64 W5        30.07F
ROMEOVILLE*    CLOUDY    49  34  56 SW8       30.08F
NORTHERLY ISL    N/A     50  33  52 SW10        N/A
$$

LMZ740>746-302000-
SOUTHERN LAKE MICHIGAN

STATION/POSITION SKY/WX   TEMP    WIND        PRES    VSBY  WAVE
                          AIR SEA DIR/SP/G                  HT/PER
                          (F)     (DEG/KT/KT) (MB)    (MI)  (FT/S)
SOUTHERN BUOY              48 53  240/ 12/ 16 1018.7F         2/ 4
WAUKEGAN HARBOR            49     240/ 10/ 13   N/A
HARRISON CRIB              48     210/ 12/ 18   N/A
BURNHAM HARBOR             50     180/  7/ 12   N/A
CALUMET HARBOR             49     180/  6/ 12 1017.3F
MICHIGAN CITY              49     210/ 11/ 12   N/A
$$

ILZ025>027-034>036-040-047-049-050-058-095>099-302000-
WEST-CENTRAL ILLINOIS

CITY           SKY/WX    TMP DP  RH WIND       PRES   REMARKS
QUINCY         PTSUNNY   55  41  59 MISG      30.01R
GALESBURG*     DRIZZLE   44  39  82 E3        30.06F
MACOMB*        CLOUDY    51  41  68 E7        30.06F
JACKSONVILLE*  CLOUDY    52  42  69 SE7G21    30.02F
PITTSFIELD*    CLOUDY    53  43  67 S12G20    30.00F
$$

ILZ028>032-037-038-041>044-048-051>054-059>061-302000-
CENTRAL ILLINOIS

CITY           SKY/WX    TMP DP  RH WIND       PRES   REMARKS
PONTIAC        CLOUDY    50  38  63 S3        30.09F
BLOOMINGTON    PTSUNNY   51  39  63 SW7       30.09F
DECATUR        CLOUDY    52  38  58 SW9       30.08F
PEORIA         CLOUDY    50  39  66 E5        30.07F
LACON*         CLOUDY    47  36  63 CALM      30.08F
LINCOLN*       CLOUDY    52  39  62 S3        30.06F
SPRINGFIELD    CLOUDY    52  42  69 SE13      30.04F
TAYLORVILLE    CLOUDY    52  37  58 S6        30.08S
$$

ILZ033-039-045-046-055>057-062-063-302000-
EAST-CENTRAL ILLINOIS

CITY           SKY/WX    TMP DP  RH WIND       PRES   REMARKS
CHAMPAIGN      CLOUDY    53  35  50 S8        30.08F
DANVILLE*      MOSUNNY   52  33  49 SW5       30.05F
RANTOUL*       PTSUNNY   54  36  50 SW5       30.08F
MATTOON        PTSUNNY   53  36  52 S8        30.07F
PARIS*         SUNNY     54  35  49 SW5       30.09F
$$

ILZ079-100>102-302000-
SOUTHWEST ILLINOIS

CITY           SKY/WX    TMP DP  RH WIND       PRES   REMARKS
ALTON          CLOUDY    55  34  44 SE9       30.06F
BELLEVILLE     PTSUNNY   59  42  53 SE7       30.05F
CAHOKIA*       PTSUNNY   60  38  43 S7        30.05F
SPARTA*        MOSUNNY   59  39  47 S7        30.07F
$$

ILZ064>066-069>071-074>076-080>082-084>086-088>090-092>094-302000-
SOUTH-CENTRAL ILLINOIS

CITY           SKY/WX    TMP DP  RH WIND       PRES   REMARKS
CARBONDALE     MOSUNNY   62  38  40 VRB7      30.08F
CAIRO*         SUNNY     63  38  39 SW6       30.09F
EFFINGHAM*     MOSUNNY   55  34  45 S3        30.08F
MARION         PTSUNNY   61  39  44 S7        30.09F
MT. VERNON     CLOUDY    57  39  51 S7        30.09F
CENTRALIA*     MOSUNNY   56  37  49 S5        30.08F
SALEM*         PTSUNNY   60  40  48 SW9       30.08F
METROPOLIS*    SUNNY     62  40  45 SE3       30.09F
$$

ILZ067-068-072-073-078-083-087-091-302000-
SOUTHEAST ILLINOIS

CITY           SKY/WX    TMP DP  RH WIND       PRES   REMARKS
LAWRENCEVILLE  SUNNY     56  31  38 VRB3      30.10F
FLORA*         SUNNY     56  37  49 S6        30.09F
FAIRFIELD*     CLOUDY    57  38  48 S6        30.08F
HARRISBURG*    PTSUNNY   58  37  45 S3        30.10F
ROBINSON*      SUNNY     57  36  45 SW6       30.11F
CARMI*         SUNNY     60  39  46 CALM      30.09F
$$

ABBREVIATIONS USED IN REMARKS
   TC - TEMPERATURE IN CELSIUS
  WCI - WIND CHILL INDEX
   HX - HEAT INDEX
  VSB - VISIBILITY
$$




USA.gov is the U.S. government's official web portal to all federal, state and local government web resources and services.